Regional Weather Roundup
Issued by NWS

Home | Current Version | Previous Version | Text Only | Print | Product List | Glossary On
Versions: 1 2 3 4 5 6 7 8 9 10 11 12 13 14 15 16 17 18 19 20 21 22 23 24 25 26 27 28 29 30 31 32 33 34 35 36 37 38 39 40 41 42 43 44 45 46 47 48 49 50
000
ASUS45 KPSR 210100
RWRAZ

PRELIMINARY ARIZONA REGIONAL HOURLY WEATHER ROUNDUP
NATIONAL WEATHER SERVICE PHOENIX AZ
600 PM MST MON OCT 20 2014

NOTE: FAIR INDICATES FEW OR NO CLOUDS BELOW 12,000 FEET WITH NO
SIGNIFICANT WEATHER AND/OR OBSTRUCTIONS TO VISIBILITY.

AZZ001>003-036-210200-
NORTHWEST ARIZONA

CITY           SKY/WX    TMP DP  RH WIND       PRES   REMARKS
KINGMAN        FAIR      73  45  36 SW9       29.93F
$$

AZZ004>008-015-016-018-210200-
NORTH CENTRAL ARIZONA

CITY           SKY/WX    TMP DP  RH WIND       PRES   REMARKS
GRAND CANYON   PTCLDY    57  39  51 E6        30.13S
PRESCOTT       CLEAR     64  42  44 S7        30.04S
FLAGSTAFF      MOCLDY    55  42  61 CALM      30.16S
PAYSON         CLEAR     64  45  48 S3        30.07S
$$

AZZ009>014-017-210200-
NORTHEAST ARIZONA

CITY           SKY/WX    TMP DP  RH WIND       PRES   REMARKS
WINSLOW        NOT AVBL
SAINT JOHNS    PTCLDY    60  47  61 S8        30.10R
$$

AZZ023-210200-
GREATER PHOENIX AREA

CITY           SKY/WX    TMP DP  RH WIND       PRES   REMARKS
PHOENIX        PTCLDY    86  48  26 CALM      29.79S
GLENDALE       PTCLDY    84  50  30 CALM      29.81F
DEER VALLEY    CLEAR     83  48  29 SW5       29.82R
SCOTTSDALE     CLEAR     84  48  28 SW3       29.83S
MESA-FALCON    PTCLDY    84  46  26 VRB5      29.81
MESA-GATEWAY   PTCLDY    82  48  30 NW3       29.83F
CHANDLER       PTCLDY    84  48  28 VRB5      29.81S
$$

AZZ027-028-210200-
SOUTHWEST MARICOPA COUNTY AND PINAL COUNTY

CITY           SKY/WX    TMP DP  RH WIND       PRES   REMARKS
CASA GRANDE    CLEAR     82  46  28 CALM      29.83R
GILA BEND      CLEAR     84  46  26 N3        29.80S
$$

AZZ503-504-507>509-210200-
SOUTHEAST ARIZONA

CITY           SKY/WX    TMP DP  RH WIND       PRES   REMARKS
TUCSON         CLEAR     80  44  27 NE5       29.90R
DAVIS-MONTHAN  CLEAR     77  47  35 NE6       29.88R
RYAN FIELD       N/A     81  52  36 W9        29.89R
NOGALES        PTCLDY    69  43  38 N5        29.95S
SIERRA VISTA   PTCLDY    66  46  48 NE5       30.01R
SAFFORD        PTCLDY    69  48  47 E8        29.94F
$$

AZZ020-021-025-026-031-210200-
SOUTHWEST ARIZONA

CITY           SKY/WX    TMP DP  RH WIND       PRES   REMARKS
YUMA           PTCLDY    91  46  21 CALM      29.75S
$$

CAZ031-033-041-043-047-048-061-210200-
SOUTHERN CALIFORNIA

CITY           SKY/WX    TMP DP  RH WIND       PRES   REMARKS
DOWNTOWN L.A.  CLEAR     70  60  70 W5        29.86S
L.A. AIRPORT   PTCLDY    68  62  81 W12       29.87S
SAN DIEGO      PTCLDY    70  60  70 NW8       29.89S
BURBANK        CLEAR     71  59  65 S7        29.86S
ONTARIO        PTCLDY    75  59  57 SW10      29.86S
RIVERSIDE      PTCLDY    75  58  55 W7        29.86S
PALM SPRINGS   CLEAR     89  49  25 S3        29.78S
EL CENTRO NAS  PTCLDY    90  52  27 CALM      29.73S
IMPERIAL       CLEAR     91  50  24 E3        29.72F
BLYTHE         CLEAR     90  45  21 CALM      29.75F
$$

NVZ020-UTZ003-210200-
SOUTHERN NEVADA-UTAH

CITY           SKY/WX    TMP DP  RH WIND       PRES   REMARKS
LAS VEGAS      NOT AVBL
SALT LAKE CITY PTCLDY    68  39  34 W5        29.90F
$$

NMZ009-TXZ055-210200-
NEW MEXICO-WEST TEXAS

CITY           SKY/WX    TMP DP  RH WIND       PRES   REMARKS
ALBUQUERQUE    CLOUDY    61  51  70 S3        30.15S
EL PASO        MOCLDY    69  52  54 E10       30.03R
$$


........................KEY........................
SKY/WX - SKY CONDITION/WEATHER
TMP    - TEMPERATURE IN FAHRENHEIT
DP     - DEW POINT IN FAHRENHEIT
RH     - RELATIVE HUMIDITY IN PERCENT
WIND   - DIRECTION AND SPEED IN MILES PER HOUR (MPH)
VRB    - VARIABLE WIND DIRECTION
PRES   - MEAN SEA LEVEL PRESSURE IN INCHES OF MERCURY
         F - FALLING PRESSURE   R - RISING PRESSURE
         S - STEADY PRESSURE
VSB    - VISIBILITY IN MILES
HX     - HEAT INDEX IN FAHRENHEIT
WCI    - WIND CHILL INDEX IN FAHRENHEIT
TC     - TEMPERATURE IN CELSIUS WHICH IS ALSO KNOWN AS
         TEMPERATURE IN CENTIGRADE
AFB    - AIR FORCE BASE
         LUKE AFB IS LUKE AIR FORCE BASE
         DAVIS-MONTHAN IS DAVIS-MONTHAN AIR FORCE BASE
NAS    - NAVAL AIR STATION
         EL CENTRO NAS IS EL CENTRO NAVAL AIR STATION
N/A    - NOT AVAILABLE


USA.gov is the U.S. government's official web portal to all federal, state and local government web resources and services.